Location: Unspecified
(0.0000°N, 0.0000°E)
Time: 18:09:51
(UTC+00:00)

STARLINK 1055 - Pass Details

Date: 24 January 2020
Orbit: 548 x 551 km, 53.0° (Epoch: 17 January)

Event Time Altitude Azimuth Distance (km) Brightness Sun altitude
Exits shadow 04:33:16 13° 19° (NNE) 1,620 6.0 -23.2°
Drops below altitude 10° 04:33:46 10° 21° (NNE) 1,806 6.2 -23.1°
Sets 04:36:01 0° 26° (NNE) 2,696 7.2 -22.5°
